owner,sensor,date,latitude,longitude,air_pressure(mBar),qcFlag 
WAVCIS,ioos:station:WAVCIS:CSI09:1,2009-04-01T00:00:00Z,29.1015,-89.9782,1007.39,11111222 
WAVCIS,ioos:station:WAVCIS:CSI09:1,2009-04-01T01:00:00Z,29.1015,-89.9782,1007.97,11111222 
WAVCIS,ioos:station:WAVCIS:CSI09:1,2009-04-01T02:00:00Z,29.1015,-89.9782,1008.17,11111222 
WAVCIS,ioos:station:WAVCIS:CSI09:1,2009-04-01T03:00:00Z,29.1015,-89.9782,1008.95,11111222 
WAVCIS,ioos:station:WAVCIS:CSI09:1,2009-04-01T04:00:00Z,29.1015,-89.9782,1009.16,11111222 
WAVCIS,ioos:station:WAVCIS:CSI09:1,2009-04-01T05:00:00Z,29.1015,-89.9782,1008.9,11111222 
WAVCIS,ioos:station:WAVCIS:CSI09:1,2009-04-01T06:00:00Z,29.1015,-89.9782,1008.62,11111222 
WAVCIS,ioos:station:WAVCIS:CSI09:1,2009-04-01T07:00:00Z,29.1015,-89.9782,1008.26,11111222 
WAVCIS,ioos:station:WAVCIS:CSI09:1,2009-04-01T08:00:00Z,29.1015,-89.9782,1008.39,11111222 
WAVCIS,ioos:station:WAVCIS:CSI09:1,2009-04-01T09:00:00Z,29.1015,-89.9782,1007.98,11111222 
WAVCIS,ioos:station:WAVCIS:CSI09:1,2009-04-01T10:00:00Z,29.1015,-89.9782,1008.06,11111222 
WAVCIS,ioos:station:WAVCIS:CSI09:1,2009-04-01T11:00:00Z,29.1015,-89.9782,1008.72,11111222 
WAVCIS,ioos:station:WAVCIS:CSI09:1,2009-04-01T12:00:00Z,29.1015,-89.9782,1009.62,11111222 
WAVCIS,ioos:station:WAVCIS:CSI09:1,2009-04-01T13:00:00Z,29.1015,-89.9782,1010.27,11111222 
WAVCIS,ioos:station:WAVCIS:CSI09:1,2009-04-01T14:00:00Z,29.1015,-89.9782,1010.26,11111222 
WAVCIS,ioos:station:WAVCIS:CSI09:1,2009-04-01T15:00:00Z,29.1015,-89.9782,1008.58,11111222 
WAVCIS,ioos:station:WAVCIS:CSI09:1,2009-04-01T16:00:00Z,29.1015,-89.9782,1009.49,11111222 
WAVCIS,ioos:station:WAVCIS:CSI09:1,2009-04-01T17:00:00Z,29.1015,-89.9782,1010.49,11111222 
WAVCIS,ioos:station:WAVCIS:CSI09:1,2009-04-01T18:00:00Z,29.1015,-89.9782,1009.79,11111222 
WAVCIS,ioos:station:WAVCIS:CSI09:1,2009-04-01T19:00:00Z,29.1015,-89.9782,1008.44,11111222 
WAVCIS,ioos:station:WAVCIS:CSI09:1,2009-04-01T20:00:00Z,29.1015,-89.9782,1007.93,11111222 
WAVCIS,ioos:station:WAVCIS:CSI09:1,2009-04-01T21:00:00Z,29.1015,-89.9782,1006.674,11111222 
WAVCIS,ioos:station:WAVCIS:CSI09:1,2009-04-01T22:00:00Z,29.1015,-89.9782,1007.88,11111222 
WAVCIS,ioos:station:WAVCIS:CSI09:1,2009-04-01T23:00:00Z,29.1015,-89.9782,1007.42,11111222 
WAVCIS,ioos:station:WAVCIS:CSI09:1,2009-04-02T00:00:00Z,29.1015,-89.9782,1006.492,11111222 
WAVCIS,ioos:station:WAVCIS:CSI09:1,2009-04-02T01:00:00Z,29.1015,-89.9782,1006.447,11111222 
WAVCIS,ioos:station:WAVCIS:CSI09:1,2009-04-02T02:00:00Z,29.1015,-89.9782,1006.527,11111222 
WAVCIS,ioos:station:WAVCIS:CSI09:1,2009-04-02T03:00:00Z,29.1015,-89.9782,1005.819,11111222 
WAVCIS,ioos:station:WAVCIS:CSI09:1,2009-04-02T04:00:00Z,29.1015,-89.9782,1004.43,11111222 
WAVCIS,ioos:station:WAVCIS:CSI09:1,2009-04-02T05:00:00Z,29.1015,-89.9782,1004.187,11111222 
WAVCIS,ioos:station:WAVCIS:CSI09:1,2009-04-02T06:00:00Z,29.1015,-89.9782,1004.387,11111222 
WAVCIS,ioos:station:WAVCIS:CSI09:1,2009-04-02T07:00:00Z,29.1015,-89.9782,1004.632,11111222 
WAVCIS,ioos:station:WAVCIS:CSI09:1,2009-04-02T08:00:00Z,29.1015,-89.9782,1004.246,11111222 
WAVCIS,ioos:station:WAVCIS:CSI09:1,2009-04-02T09:00:00Z,29.1015,-89.9782,1003.988,11111222 
WAVCIS,ioos:station:WAVCIS:CSI09:1,2009-04-02T10:00:00Z,29.1015,-89.9782,1003.633,11111222 
WAVCIS,ioos:station:WAVCIS:CSI09:1,2009-04-02T11:00:00Z,29.1015,-89.9782,1003.552,11111222 
WAVCIS,ioos:station:WAVCIS:CSI09:1,2009-04-02T12:00:00Z,29.1015,-89.9782,1004.093,11111222 
WAVCIS,ioos:station:WAVCIS:CSI09:1,2009-04-02T13:00:00Z,29.1015,-89.9782,1004.289,11111222 
WAVCIS,ioos:station:WAVCIS:CSI09:1,2009-04-02T14:00:00Z,29.1015,-89.9782,1003.264,11111222 
WAVCIS,ioos:station:WAVCIS:CSI09:1,2009-04-02T15:00:00Z,29.1015,-89.9782,1002.914,11111222 
WAVCIS,ioos:station:WAVCIS:CSI09:1,2009-04-02T16:00:00Z,29.1015,-89.9782,1001.719,11111222 
WAVCIS,ioos:station:WAVCIS:CSI09:1,2009-04-02T17:00:00Z,29.1015,-89.9782,999.77,11111222 
WAVCIS,ioos:station:WAVCIS:CSI09:1,2009-04-02T18:00:00Z,29.1015,-89.9782,999.661,11111222 
WAVCIS,ioos:station:WAVCIS:CSI09:1,2009-04-02T19:00:00Z,29.1015,-89.9782,999.69,11111222 
WAVCIS,ioos:station:WAVCIS:CSI09:1,2009-04-02T20:00:00Z,29.1015,-89.9782,999.407,11111222 
WAVCIS,ioos:station:WAVCIS:CSI09:1,2009-04-02T21:00:00Z,29.1015,-89.9782,999.138,11111222 
WAVCIS,ioos:station:WAVCIS:CSI09:1,2009-04-02T22:00:00Z,29.1015,-89.9782,999.139,11111222 
WAVCIS,ioos:station:WAVCIS:CSI09:1,2009-04-02T23:00:00Z,29.1015,-89.9782,999.473,11111222 
WAVCIS,ioos:station:WAVCIS:CSI09:1,2009-04-03T00:00:00Z,29.1015,-89.9782,1000.19,11111222 
WAVCIS,ioos:station:WAVCIS:CSI09:1,2009-04-03T01:00:00Z,29.1015,-89.9782,1001.166,11111222 
WAVCIS,ioos:station:WAVCIS:CSI09:1,2009-04-03T02:00:00Z,29.1015,-89.9782,1002.311,11111222 
WAVCIS,ioos:station:WAVCIS:CSI09:1,2009-04-03T03:00:00Z,29.1015,-89.9782,1003.406,11111222 
WAVCIS,ioos:station:WAVCIS:CSI09:1,2009-04-03T04:00:00Z,29.1015,-89.9782,1004.154,11111222 
WAVCIS,ioos:station:WAVCIS:CSI09:1,2009-04-03T05:00:00Z,29.1015,-89.9782,1004.824,11111222 
WAVCIS,ioos:station:WAVCIS:CSI09:1,2009-04-03T06:00:00Z,29.1015,-89.9782,1005.384,11111222 
WAVCIS,ioos:station:WAVCIS:CSI09:1,2009-04-03T07:00:00Z,29.1015,-89.9782,1005.685,11111222 
WAVCIS,ioos:station:WAVCIS:CSI09:1,2009-04-03T08:00:00Z,29.1015,-89.9782,1006.026,11111222 
WAVCIS,ioos:station:WAVCIS:CSI09:1,2009-04-03T09:00:00Z,29.1015,-89.9782,1006.167,11111222 
WAVCIS,ioos:station:WAVCIS:CSI09:1,2009-04-03T10:00:00Z,29.1015,-89.9782,1006.71,11111222 
WAVCIS,ioos:station:WAVCIS:CSI09:1,2009-04-03T11:00:00Z,29.1015,-89.9782,1007.58,11111222 
WAVCIS,ioos:station:WAVCIS:CSI09:1,2009-04-03T12:00:00Z,29.1015,-89.9782,1008.45,11111222 
WAVCIS,ioos:station:WAVCIS:CSI09:1,2009-04-03T13:00:00Z,29.1015,-89.9782,1009.06,11111222 
WAVCIS,ioos:station:WAVCIS:CSI09:1,2009-04-03T14:00:00Z,29.1015,-89.9782,1009.43,11111222 
WAVCIS,ioos:station:WAVCIS:CSI09:1,2009-04-03T15:00:00Z,29.1015,-89.9782,1010.03,11111222 
WAVCIS,ioos:station:WAVCIS:CSI09:1,2009-04-03T16:00:00Z,29.1015,-89.9782,1010.71,11111222 
WAVCIS,ioos:station:WAVCIS:CSI09:1,2009-04-03T17:00:00Z,29.1015,-89.9782,1010.82,11111222 
WAVCIS,ioos:station:WAVCIS:CSI09:1,2009-04-03T18:00:00Z,29.1015,-89.9782,1010.93,11111222 
WAVCIS,ioos:station:WAVCIS:CSI09:1,2009-04-03T19:00:00Z,29.1015,-89.9782,1010.57,11111222 
WAVCIS,ioos:station:WAVCIS:CSI09:1,2009-04-03T20:00:00Z,29.1015,-89.9782,1010.15,11111222 
WAVCIS,ioos:station:WAVCIS:CSI09:1,2009-04-03T21:00:00Z,29.1015,-89.9782,1009.81,11111222 
WAVCIS,ioos:station:WAVCIS:CSI09:1,2009-04-03T22:00:00Z,29.1015,-89.9782,1009.79,11111222 
WAVCIS,ioos:station:WAVCIS:CSI09:1,2009-04-03T23:00:00Z,29.1015,-89.9782,1009.94,11111222 
WAVCIS,ioos:station:WAVCIS:CSI09:1,2009-04-04T00:00:00Z,29.1015,-89.9782,1010.49,11111222 
WAVCIS,ioos:station:WAVCIS:CSI09:1,2009-04-04T01:00:00Z,29.1015,-89.9782,1010.93,11111222 
WAVCIS,ioos:station:WAVCIS:CSI09:1,2009-04-04T02:00:00Z,29.1015,-89.9782,1011.51,11111222 
WAVCIS,ioos:station:WAVCIS:CSI09:1,2009-04-04T03:00:00Z,29.1015,-89.9782,1011.75,11111222 
WAVCIS,ioos:station:WAVCIS:CSI09:1,2009-04-04T04:00:00Z,29.1015,-89.9782,1011.83,11111222 
WAVCIS,ioos:station:WAVCIS:CSI09:1,2009-04-04T05:00:00Z,29.1015,-89.9782,1011.69,11111222 
WAVCIS,ioos:station:WAVCIS:CSI09:1,2009-04-04T06:00:00Z,29.1015,-89.9782,1011.04,11111222 
WAVCIS,ioos:station:WAVCIS:CSI09:1,2009-04-04T07:00:00Z,29.1015,-89.9782,1011.16,11111222 
WAVCIS,ioos:station:WAVCIS:CSI09:1,2009-04-04T08:00:00Z,29.1015,-89.9782,1010.88,11111222 
WAVCIS,ioos:station:WAVCIS:CSI09:1,2009-04-04T09:00:00Z,29.1015,-89.9782,1010.85,11111222 
WAVCIS,ioos:station:WAVCIS:CSI09:1,2009-04-04T10:00:00Z,29.1015,-89.9782,1011.05,11111222 
WAVCIS,ioos:station:WAVCIS:CSI09:1,2009-04-04T11:00:00Z,29.1015,-89.9782,1011.26,11111222 
WAVCIS,ioos:station:WAVCIS:CSI09:1,2009-04-04T12:00:00Z,29.1015,-89.9782,1011.58,11111222 
WAVCIS,ioos:station:WAVCIS:CSI09:1,2009-04-04T13:00:00Z,29.1015,-89.9782,1012.31,11111222 
WAVCIS,ioos:station:WAVCIS:CSI09:1,2009-04-04T14:00:00Z,29.1015,-89.9782,1012.98,11111222 
WAVCIS,ioos:station:WAVCIS:CSI09:1,2009-04-04T15:00:00Z,29.1015,-89.9782,1013.6,11111222 
WAVCIS,ioos:station:WAVCIS:CSI09:1,2009-04-04T16:00:00Z,29.1015,-89.9782,1013.78,11111222 
WAVCIS,ioos:station:WAVCIS:CSI09:1,2009-04-04T17:00:00Z,29.1015,-89.9782,1013.61,11111222 
WAVCIS,ioos:station:WAVCIS:CSI09:1,2009-04-04T18:00:00Z,29.1015,-89.9782,1013.28,11111222 
WAVCIS,ioos:station:WAVCIS:CSI09:1,2009-04-04T19:00:00Z,29.1015,-89.9782,1012.09,11111222 
WAVCIS,ioos:station:WAVCIS:CSI09:1,2009-04-04T20:00:00Z,29.1015,-89.9782,1011.45,11111222 
WAVCIS,ioos:station:WAVCIS:CSI09:1,2009-04-04T21:00:00Z,29.1015,-89.9782,1010.81,11111222 
WAVCIS,ioos:station:WAVCIS:CSI09:1,2009-04-04T22:00:00Z,29.1015,-89.9782,1010.62,11111222 
WAVCIS,ioos:station:WAVCIS:CSI09:1,2009-04-04T23:00:00Z,29.1015,-89.9782,1010.16,11111222 
WAVCIS,ioos:station:WAVCIS:CSI09:1,2009-04-05T00:00:00Z,29.1015,-89.9782,1010.24,11111222 
WAVCIS,ioos:station:WAVCIS:CSI09:1,2009-04-05T01:00:00Z,29.1015,-89.9782,1010.33,11111222 
WAVCIS,ioos:station:WAVCIS:CSI09:1,2009-04-05T02:00:00Z,29.1015,-89.9782,1010.61,11111222 
WAVCIS,ioos:station:WAVCIS:CSI09:1,2009-04-05T03:00:00Z,29.1015,-89.9782,1010.71,11111222 
WAVCIS,ioos:station:WAVCIS:CSI09:1,2009-04-05T04:00:00Z,29.1015,-89.9782,1010.46,11111222 
WAVCIS,ioos:station:WAVCIS:CSI09:1,2009-04-05T05:00:00Z,29.1015,-89.9782,1009.8,11111222 
WAVCIS,ioos:station:WAVCIS:CSI09:1,2009-04-05T06:00:00Z,29.1015,-89.9782,1009.26,11111222 
WAVCIS,ioos:station:WAVCIS:CSI09:1,2009-04-05T07:00:00Z,29.1015,-89.9782,1008.78,11111222 
WAVCIS,ioos:station:WAVCIS:CSI09:1,2009-04-05T08:00:00Z,29.1015,-89.9782,1008.62,11111222 
WAVCIS,ioos:station:WAVCIS:CSI09:1,2009-04-05T09:00:00Z,29.1015,-89.9782,1007.99,11111222 
WAVCIS,ioos:station:WAVCIS:CSI09:1,2009-04-05T10:00:00Z,29.1015,-89.9782,1008.21,11111222 
WAVCIS,ioos:station:WAVCIS:CSI09:1,2009-04-05T11:00:00Z,29.1015,-89.9782,1008.42,11111222 
WAVCIS,ioos:station:WAVCIS:CSI09:1,2009-04-05T12:00:00Z,29.1015,-89.9782,1009.11,11111222 
WAVCIS,ioos:station:WAVCIS:CSI09:1,2009-04-05T13:00:00Z,29.1015,-89.9782,1009.7,11111222 
WAVCIS,ioos:station:WAVCIS:CSI09:1,2009-04-05T14:00:00Z,29.1015,-89.9782,1009.86,11111222 
WAVCIS,ioos:station:WAVCIS:CSI09:1,2009-04-05T15:00:00Z,29.1015,-89.9782,1010.06,11111222 
WAVCIS,ioos:station:WAVCIS:CSI09:1,2009-04-05T16:00:00Z,29.1015,-89.9782,1010.28,11111222 
WAVCIS,ioos:station:WAVCIS:CSI09:1,2009-04-05T17:00:00Z,29.1015,-89.9782,1010.43,11111222 
WAVCIS,ioos:station:WAVCIS:CSI09:1,2009-04-05T18:00:00Z,29.1015,-89.9782,1010.54,11111222 
WAVCIS,ioos:station:WAVCIS:CSI09:1,2009-04-05T19:00:00Z,29.1015,-89.9782,1010.08,11111222 
WAVCIS,ioos:station:WAVCIS:CSI09:1,2009-04-05T20:00:00Z,29.1015,-89.9782,1009.66,11111222 
WAVCIS,ioos:station:WAVCIS:CSI09:1,2009-04-05T21:00:00Z,29.1015,-89.9782,1009.24,11111222 
WAVCIS,ioos:station:WAVCIS:CSI09:1,2009-04-05T22:00:00Z,29.1015,-89.9782,1008.88,11111222 
WAVCIS,ioos:station:WAVCIS:CSI09:1,2009-04-05T23:00:00Z,29.1015,-89.9782,1008.6,11111222 
WAVCIS,ioos:station:WAVCIS:CSI09:1,2009-04-06T00:00:00Z,29.1015,-89.9782,1008.95,11111222 
WAVCIS,ioos:station:WAVCIS:CSI09:1,2009-04-06T01:00:00Z,29.1015,-89.9782,1009.34,11111222 
WAVCIS,ioos:station:WAVCIS:CSI09:1,2009-04-06T02:00:00Z,29.1015,-89.9782,1009.88,11111222 
WAVCIS,ioos:station:WAVCIS:CSI09:1,2009-04-06T03:00:00Z,29.1015,-89.9782,1010.73,11111222 
WAVCIS,ioos:station:WAVCIS:CSI09:1,2009-04-06T04:00:00Z,29.1015,-89.9782,1010.88,11111222 
WAVCIS,ioos:station:WAVCIS:CSI09:1,2009-04-06T05:00:00Z,29.1015,-89.9782,1011.33,11111222 
WAVCIS,ioos:station:WAVCIS:CSI09:1,2009-04-06T06:00:00Z,29.1015,-89.9782,1012.0,11111222 
WAVCIS,ioos:station:WAVCIS:CSI09:1,2009-04-06T07:00:00Z,29.1015,-89.9782,1012.46,11111222 
WAVCIS,ioos:station:WAVCIS:CSI09:1,2009-04-06T08:00:00Z,29.1015,-89.9782,1012.33,11111222 
WAVCIS,ioos:station:WAVCIS:CSI09:1,2009-04-06T09:00:00Z,29.1015,-89.9782,1012.61,11111222 
WAVCIS,ioos:station:WAVCIS:CSI09:1,2009-04-06T10:00:00Z,29.1015,-89.9782,1013.31,11111222 
WAVCIS,ioos:station:WAVCIS:CSI09:1,2009-04-06T11:00:00Z,29.1015,-89.9782,1014.04,11111222 
WAVCIS,ioos:station:WAVCIS:CSI09:1,2009-04-06T12:00:00Z,29.1015,-89.9782,1015.32,11111222 
WAVCIS,ioos:station:WAVCIS:CSI09:1,2009-04-06T13:00:00Z,29.1015,-89.9782,1016.41,11111222 
WAVCIS,ioos:station:WAVCIS:CSI09:1,2009-04-06T14:00:00Z,29.1015,-89.9782,1017.16,11111222 
WAVCIS,ioos:station:WAVCIS:CSI09:1,2009-04-06T15:00:00Z,29.1015,-89.9782,1017.9,11111222 
WAVCIS,ioos:station:WAVCIS:CSI09:1,2009-04-06T16:00:00Z,29.1015,-89.9782,1017.95,11111222 
WAVCIS,ioos:station:WAVCIS:CSI09:1,2009-04-06T17:00:00Z,29.1015,-89.9782,1018.02,11111222 
WAVCIS,ioos:station:WAVCIS:CSI09:1,2009-04-06T18:00:00Z,29.1015,-89.9782,1017.56,11111222 
WAVCIS,ioos:station:WAVCIS:CSI09:1,2009-04-06T19:00:00Z,29.1015,-89.9782,1016.87,11111222 
WAVCIS,ioos:station:WAVCIS:CSI09:1,2009-04-06T20:00:00Z,29.1015,-89.9782,1016.34,11111222 
WAVCIS,ioos:station:WAVCIS:CSI09:1,2009-04-06T21:00:00Z,29.1015,-89.9782,1015.72,11111222 
WAVCIS,ioos:station:WAVCIS:CSI09:1,2009-04-06T22:00:00Z,29.1015,-89.9782,1015.92,11111222 
WAVCIS,ioos:station:WAVCIS:CSI09:1,2009-04-06T23:00:00Z,29.1015,-89.9782,1016.51,11111222 
WAVCIS,ioos:station:WAVCIS:CSI09:1,2009-04-07T00:00:00Z,29.1015,-89.9782,1016.82,11111222 
WAVCIS,ioos:station:WAVCIS:CSI09:1,2009-04-07T01:00:00Z,29.1015,-89.9782,1017.69,11111222 
WAVCIS,ioos:station:WAVCIS:CSI09:1,2009-04-07T02:00:00Z,29.1015,-89.9782,1018.44,11111222 
WAVCIS,ioos:station:WAVCIS:CSI09:1,2009-04-07T03:00:00Z,29.1015,-89.9782,1019.47,11111222 
WAVCIS,ioos:station:WAVCIS:CSI09:1,2009-04-07T04:00:00Z,29.1015,-89.9782,1020.37,11111222 
WAVCIS,ioos:station:WAVCIS:CSI09:1,2009-04-07T05:00:00Z,29.1015,-89.9782,1020.92,11111222 
WAVCIS,ioos:station:WAVCIS:CSI09:1,2009-04-07T06:00:00Z,29.1015,-89.9782,1021.48,11111222 
WAVCIS,ioos:station:WAVCIS:CSI09:1,2009-04-07T07:00:00Z,29.1015,-89.9782,1021.56,11111222 
WAVCIS,ioos:station:WAVCIS:CSI09:1,2009-04-07T08:00:00Z,29.1015,-89.9782,1021.28,11111222 
WAVCIS,ioos:station:WAVCIS:CSI09:1,2009-04-07T09:00:00Z,29.1015,-89.9782,1020.97,11111222 
WAVCIS,ioos:station:WAVCIS:CSI09:1,2009-04-07T10:00:00Z,29.1015,-89.9782,1021.13,11111222 
WAVCIS,ioos:station:WAVCIS:CSI09:1,2009-04-07T11:00:00Z,29.1015,-89.9782,1021.9,11111222 
WAVCIS,ioos:station:WAVCIS:CSI09:1,2009-04-07T12:00:00Z,29.1015,-89.9782,1022.37,11111222 
WAVCIS,ioos:station:WAVCIS:CSI09:1,2009-04-07T13:00:00Z,29.1015,-89.9782,1022.79,11111222 
WAVCIS,ioos:station:WAVCIS:CSI09:1,2009-04-07T14:00:00Z,29.1015,-89.9782,1023.65,11111222 
WAVCIS,ioos:station:WAVCIS:CSI09:1,2009-04-07T15:00:00Z,29.1015,-89.9782,1023.58,11111222 
WAVCIS,ioos:station:WAVCIS:CSI09:1,2009-04-07T16:00:00Z,29.1015,-89.9782,1023.9,11111222 
WAVCIS,ioos:station:WAVCIS:CSI09:1,2009-04-07T17:00:00Z,29.1015,-89.9782,1023.25,11111222 
WAVCIS,ioos:station:WAVCIS:CSI09:1,2009-04-07T18:00:00Z,29.1015,-89.9782,1022.59,11111222 
WAVCIS,ioos:station:WAVCIS:CSI09:1,2009-04-07T19:00:00Z,29.1015,-89.9782,1021.86,11111222 
WAVCIS,ioos:station:WAVCIS:CSI09:1,2009-04-07T20:00:00Z,29.1015,-89.9782,1021.4,11111222 
WAVCIS,ioos:station:WAVCIS:CSI09:1,2009-04-07T21:00:00Z,29.1015,-89.9782,1020.82,11111222 
WAVCIS,ioos:station:WAVCIS:CSI09:1,2009-04-07T22:00:00Z,29.1015,-89.9782,1020.67,11111222 
WAVCIS,ioos:station:WAVCIS:CSI09:1,2009-04-07T23:00:00Z,29.1015,-89.9782,1020.15,11111222 
WAVCIS,ioos:station:WAVCIS:CSI09:1,2009-04-08T00:00:00Z,29.1015,-89.9782,1020.05,11111222 
WAVCIS,ioos:station:WAVCIS:CSI09:1,2009-04-08T01:00:00Z,29.1015,-89.9782,1020.04,11111222 
WAVCIS,ioos:station:WAVCIS:CSI09:1,2009-04-08T02:00:00Z,29.1015,-89.9782,1020.27,11111222 
WAVCIS,ioos:station:WAVCIS:CSI09:1,2009-04-08T03:00:00Z,29.1015,-89.9782,1020.83,11111222 
WAVCIS,ioos:station:WAVCIS:CSI09:1,2009-04-08T04:00:00Z,29.1015,-89.9782,1020.86,11111222 
WAVCIS,ioos:station:WAVCIS:CSI09:1,2009-04-08T05:00:00Z,29.1015,-89.9782,1020.32,11111222 
WAVCIS,ioos:station:WAVCIS:CSI09:1,2009-04-08T06:00:00Z,29.1015,-89.9782,1019.89,11111222 
WAVCIS,ioos:station:WAVCIS:CSI09:1,2009-04-08T07:00:00Z,29.1015,-89.9782,1019.59,11111222 
WAVCIS,ioos:station:WAVCIS:CSI09:1,2009-04-08T08:00:00Z,29.1015,-89.9782,1018.97,11111222 
WAVCIS,ioos:station:WAVCIS:CSI09:1,2009-04-08T09:00:00Z,29.1015,-89.9782,1018.93,11111222 
WAVCIS,ioos:station:WAVCIS:CSI09:1,2009-04-08T10:00:00Z,29.1015,-89.9782,1018.53,11111222 
WAVCIS,ioos:station:WAVCIS:CSI09:1,2009-04-08T11:00:00Z,29.1015,-89.9782,1018.34,11111222 
WAVCIS,ioos:station:WAVCIS:CSI09:1,2009-04-08T12:00:00Z,29.1015,-89.9782,1018.93,11111222 
WAVCIS,ioos:station:WAVCIS:CSI09:1,2009-04-08T13:00:00Z,29.1015,-89.9782,1019.74,11111222 
WAVCIS,ioos:station:WAVCIS:CSI09:1,2009-04-08T14:00:00Z,29.1015,-89.9782,1019.89,11111222 
WAVCIS,ioos:station:WAVCIS:CSI09:1,2009-04-08T15:00:00Z,29.1015,-89.9782,1020.08,11111222 
WAVCIS,ioos:station:WAVCIS:CSI09:1,2009-04-08T16:00:00Z,29.1015,-89.9782,1020.08,11111222 
WAVCIS,ioos:station:WAVCIS:CSI09:1,2009-04-08T17:00:00Z,29.1015,-89.9782,1019.95,11111222 
WAVCIS,ioos:station:WAVCIS:CSI09:1,2009-04-08T18:00:00Z,29.1015,-89.9782,1019.08,11111222 
WAVCIS,ioos:station:WAVCIS:CSI09:1,2009-04-08T19:00:00Z,29.1015,-89.9782,1018.4,11111222 
WAVCIS,ioos:station:WAVCIS:CSI09:1,2009-04-08T20:00:00Z,29.1015,-89.9782,1017.58,11111222 
WAVCIS,ioos:station:WAVCIS:CSI09:1,2009-04-08T21:00:00Z,29.1015,-89.9782,1016.79,11111222 
WAVCIS,ioos:station:WAVCIS:CSI09:1,2009-04-08T22:00:00Z,29.1015,-89.9782,1016.04,11111222 
WAVCIS,ioos:station:WAVCIS:CSI09:1,2009-04-08T23:00:00Z,29.1015,-89.9782,1015.46,11111222 
WAVCIS,ioos:station:WAVCIS:CSI09:1,2009-04-09T00:00:00Z,29.1015,-89.9782,1015.14,11111222 
WAVCIS,ioos:station:WAVCIS:CSI09:1,2009-04-09T01:00:00Z,29.1015,-89.9782,1014.62,11111222 
WAVCIS,ioos:station:WAVCIS:CSI09:1,2009-04-09T02:00:00Z,29.1015,-89.9782,1014.83,11111222 
WAVCIS,ioos:station:WAVCIS:CSI09:1,2009-04-09T03:00:00Z,29.1015,-89.9782,1015.01,11111222 
WAVCIS,ioos:station:WAVCIS:CSI09:1,2009-04-09T04:00:00Z,29.1015,-89.9782,1015.27,11111222 
WAVCIS,ioos:station:WAVCIS:CSI09:1,2009-04-09T05:00:00Z,29.1015,-89.9782,1015.12,11111222 
WAVCIS,ioos:station:WAVCIS:CSI09:1,2009-04-09T06:00:00Z,29.1015,-89.9782,1014.75,11111222 
WAVCIS,ioos:station:WAVCIS:CSI09:1,2009-04-09T07:00:00Z,29.1015,-89.9782,1014.27,11111222 
WAVCIS,ioos:station:WAVCIS:CSI09:1,2009-04-09T08:00:00Z,29.1015,-89.9782,1013.89,11111222 
WAVCIS,ioos:station:WAVCIS:CSI09:1,2009-04-09T09:00:00Z,29.1015,-89.9782,1013.73,11111222 
WAVCIS,ioos:station:WAVCIS:CSI09:1,2009-04-09T10:00:00Z,29.1015,-89.9782,1013.04,11111222 
WAVCIS,ioos:station:WAVCIS:CSI09:1,2009-04-09T11:00:00Z,29.1015,-89.9782,1013.21,11111222 
WAVCIS,ioos:station:WAVCIS:CSI09:1,2009-04-09T12:00:00Z,29.1015,-89.9782,1013.54,11111222 
WAVCIS,ioos:station:WAVCIS:CSI09:1,2009-04-09T13:00:00Z,29.1015,-89.9782,1013.79,11111222 
WAVCIS,ioos:station:WAVCIS:CSI09:1,2009-04-09T14:00:00Z,29.1015,-89.9782,1014.25,11111222 
WAVCIS,ioos:station:WAVCIS:CSI09:1,2009-04-09T15:00:00Z,29.1015,-89.9782,1014.52,11111222 
WAVCIS,ioos:station:WAVCIS:CSI09:1,2009-04-09T16:00:00Z,29.1015,-89.9782,1014.31,11111222 
WAVCIS,ioos:station:WAVCIS:CSI09:1,2009-04-09T17:00:00Z,29.1015,-89.9782,1014.31,11111222 
WAVCIS,ioos:station:WAVCIS:CSI09:1,2009-04-09T18:00:00Z,29.1015,-89.9782,1013.22,11111222 
WAVCIS,ioos:station:WAVCIS:CSI09:1,2009-04-09T19:00:00Z,29.1015,-89.9782,1013.02,11111222 
WAVCIS,ioos:station:WAVCIS:CSI09:1,2009-04-09T20:00:00Z,29.1015,-89.9782,1012.49,11111222 
WAVCIS,ioos:station:WAVCIS:CSI09:1,2009-04-09T21:00:00Z,29.1015,-89.9782,1011.93,11111222 
WAVCIS,ioos:station:WAVCIS:CSI09:1,2009-04-09T22:00:00Z,29.1015,-89.9782,1011.93,11111222 
WAVCIS,ioos:station:WAVCIS:CSI09:1,2009-04-09T23:00:00Z,29.1015,-89.9782,1010.96,11111222 
WAVCIS,ioos:station:WAVCIS:CSI09:1,2009-04-10T00:00:00Z,29.1015,-89.9782,1010.39,11111222 
WAVCIS,ioos:station:WAVCIS:CSI09:1,2009-04-10T01:00:00Z,29.1015,-89.9782,1010.87,11111222 
WAVCIS,ioos:station:WAVCIS:CSI09:1,2009-04-10T02:00:00Z,29.1015,-89.9782,1010.73,11111222 
WAVCIS,ioos:station:WAVCIS:CSI09:1,2009-04-10T03:00:00Z,29.1015,-89.9782,1011.27,11111222 
WAVCIS,ioos:station:WAVCIS:CSI09:1,2009-04-10T04:00:00Z,29.1015,-89.9782,1012.05,11111222 
WAVCIS,ioos:station:WAVCIS:CSI09:1,2009-04-10T05:00:00Z,29.1015,-89.9782,1011.66,11111222 
WAVCIS,ioos:station:WAVCIS:CSI09:1,2009-04-10T06:00:00Z,29.1015,-89.9782,1010.18,11111222 
WAVCIS,ioos:station:WAVCIS:CSI09:1,2009-04-10T07:00:00Z,29.1015,-89.9782,1010.04,11111222 
WAVCIS,ioos:station:WAVCIS:CSI09:1,2009-04-10T08:00:00Z,29.1015,-89.9782,1010.77,11111222 
WAVCIS,ioos:station:WAVCIS:CSI09:1,2009-04-10T09:00:00Z,29.1015,-89.9782,1011.27,11111222 
WAVCIS,ioos:station:WAVCIS:CSI09:1,2009-04-10T10:00:00Z,29.1015,-89.9782,1011.01,11111222 
WAVCIS,ioos:station:WAVCIS:CSI09:1,2009-04-10T11:00:00Z,29.1015,-89.9782,1011.11,11111222 
WAVCIS,ioos:station:WAVCIS:CSI09:1,2009-04-10T12:00:00Z,29.1015,-89.9782,1012.1,11111222 
WAVCIS,ioos:station:WAVCIS:CSI09:1,2009-04-10T13:00:00Z,29.1015,-89.9782,1012.86,11111222 
WAVCIS,ioos:station:WAVCIS:CSI09:1,2009-04-10T14:00:00Z,29.1015,-89.9782,1013.14,11111222 
WAVCIS,ioos:station:WAVCIS:CSI09:1,2009-04-10T15:00:00Z,29.1015,-89.9782,1013.2,11111222 
WAVCIS,ioos:station:WAVCIS:CSI09:1,2009-04-10T16:00:00Z,29.1015,-89.9782,1014.44,11111222 
WAVCIS,ioos:station:WAVCIS:CSI09:1,2009-04-10T17:00:00Z,29.1015,-89.9782,1014.89,11111222 
WAVCIS,ioos:station:WAVCIS:CSI09:1,2009-04-10T18:00:00Z,29.1015,-89.9782,1015.08,11111222 
WAVCIS,ioos:station:WAVCIS:CSI09:1,2009-04-10T19:00:00Z,29.1015,-89.9782,1014.52,11111222 
WAVCIS,ioos:station:WAVCIS:CSI09:1,2009-04-10T20:00:00Z,29.1015,-89.9782,1013.92,11111222 
WAVCIS,ioos:station:WAVCIS:CSI09:1,2009-04-10T21:00:00Z,29.1015,-89.9782,1013.49,11111222 
WAVCIS,ioos:station:WAVCIS:CSI09:1,2009-04-10T22:00:00Z,29.1015,-89.9782,1013.15,11111222 
WAVCIS,ioos:station:WAVCIS:CSI09:1,2009-04-10T23:00:00Z,29.1015,-89.9782,1013.38,11111222 
WAVCIS,ioos:station:WAVCIS:CSI09:1,2009-04-11T00:00:00Z,29.1015,-89.9782,1013.69,11111222 
WAVCIS,ioos:station:WAVCIS:CSI09:1,2009-04-11T01:00:00Z,29.1015,-89.9782,1014.07,11111222 
WAVCIS,ioos:station:WAVCIS:CSI09:1,2009-04-11T02:00:00Z,29.1015,-89.9782,1014.82,11111222 
WAVCIS,ioos:station:WAVCIS:CSI09:1,2009-04-11T03:00:00Z,29.1015,-89.9782,1015.5,11111222 
WAVCIS,ioos:station:WAVCIS:CSI09:1,2009-04-11T04:00:00Z,29.1015,-89.9782,1015.47,11111222 
WAVCIS,ioos:station:WAVCIS:CSI09:1,2009-04-11T05:00:00Z,29.1015,-89.9782,1015.88,11111222 
WAVCIS,ioos:station:WAVCIS:CSI09:1,2009-04-11T06:00:00Z,29.1015,-89.9782,1015.78,11111222 
WAVCIS,ioos:station:WAVCIS:CSI09:1,2009-04-11T07:00:00Z,29.1015,-89.9782,1015.07,11111222 
WAVCIS,ioos:station:WAVCIS:CSI09:1,2009-04-11T08:00:00Z,29.1015,-89.9782,1014.33,11111222 
WAVCIS,ioos:station:WAVCIS:CSI09:1,2009-04-11T09:00:00Z,29.1015,-89.9782,1015.05,11111222 
WAVCIS,ioos:station:WAVCIS:CSI09:1,2009-04-11T10:00:00Z,29.1015,-89.9782,1016.12,11111222 
WAVCIS,ioos:station:WAVCIS:CSI09:1,2009-04-11T11:00:00Z,29.1015,-89.9782,1016.19,11111222 
WAVCIS,ioos:station:WAVCIS:CSI09:1,2009-04-11T12:00:00Z,29.1015,-89.9782,1016.17,11111222 
WAVCIS,ioos:station:WAVCIS:CSI09:1,2009-04-11T13:00:00Z,29.1015,-89.9782,1017.2,11111222 
WAVCIS,ioos:station:WAVCIS:CSI09:1,2009-04-11T14:00:00Z,29.1015,-89.9782,1017.85,11111222 
WAVCIS,ioos:station:WAVCIS:CSI09:1,2009-04-11T15:00:00Z,29.1015,-89.9782,1018.24,11111222 
WAVCIS,ioos:station:WAVCIS:CSI09:1,2009-04-11T16:00:00Z,29.1015,-89.9782,1018.72,11111222 
WAVCIS,ioos:station:WAVCIS:CSI09:1,2009-04-11T17:00:00Z,29.1015,-89.9782,1018.27,11111222 
WAVCIS,ioos:station:WAVCIS:CSI09:1,2009-04-11T18:00:00Z,29.1015,-89.9782,1017.96,11111222 
WAVCIS,ioos:station:WAVCIS:CSI09:1,2009-04-11T19:00:00Z,29.1015,-89.9782,1017.42,11111222 
WAVCIS,ioos:station:WAVCIS:CSI09:1,2009-04-11T20:00:00Z,29.1015,-89.9782,1016.96,11111222 
WAVCIS,ioos:station:WAVCIS:CSI09:1,2009-04-11T21:00:00Z,29.1015,-89.9782,1015.85,11111222 